Weather History for Jackson, TN

Change the Weather History Date:

Monday, November 12, 2012

  Actual Average Record
Temperature  
Mean Temperature 46 °F 52 °F  
Max Temperature 62 °F 63 °F 82 °F (1989)
Min Temperature 29 °F 40 °F 21 °F (1950)
Degree Days  
Heating Degree Days 19 14  
Month to date heating degree days 159 142  
Since 1 July heating degree days 433 356  
Cooling Degree Days 0 0  
Month to date cooling degree days 0 2  
Year to date cooling degree days 1931 1693  
Moisture  
Dew Point 43 °F    
Average Humidity 71    
Maximum Humidity 100    
Minimum Humidity 42    
Precipitation  
Precipitation 0.72 in 0.15 in 0.87 in (1951)
Month to date precipitation 1.79 1.70  
Year to date precipitation 37.26 44.72  
Snow  
Snow 0.00 in 0.00 in T in (1968)
Month to date snowfall 0.0 0.0  
Since 1 July snowfall 0.0 0.0  
Since 1 September snowfall 0.0 0.0  
Snow Depth 0.00 in    
Sea Level Pressure  
Sea Level Pressure 30.25 in    
Wind  
Wind Speed 8 mph (NW)    
Max Wind Speed 23 mph    
Max Gust Speed 31 mph    
Visibility 8 miles    
Events Rain    
T = Trace of Precipitation, MM = Missing Value Source: NWS Daily Summary

Daily Weather History Graph

Daily Weather History Graph

Search for Another Location

Airport:

Trip Planner

Search our weather history database for the weather conditions in past years. The results will help you decide how hot, cold, wet, or windy it might be!

Date:

Astronomy

Nov. 12, 2012 Rise Set
Actual Time 6:28 AM CST 4:50 PM CST
Civil Twilight 6:01 AM CST 5:17 PM CST
Nautical Twilight 5:31 AM CST 5:48 PM CST
Astronomical Twilight 5:01 AM CST 6:18 PM CST
Moon 4:55 AM CST (11/12) 3:54 PM CST (11/12)
Length of Visible Light 11h 15m
Length of Day
10h 21m
Waning Crescent, 2% of the Moon is Illuminated
Nov 12
Waning Crescent
Nov 13
New
Nov 20
First Quarter
Nov 28
Full
Dec 6
Last Quarter

Hourly Weather History & Observations

Time (CST) Temp. Windchill Dew Point Humidity Pressure Visibility Wind Dir Wind Speed Gust Speed Precip Events Conditions
12:10 AM 60.8 °F - 57.2 °F 88% 30.02 in 10.0 mi South 10.4 mph 21.9 mph 0.00 in Rain Light Rain
12:23 AM 62.6 °F - 57.2 °F 82% 30.01 in 10.0 mi South 11.5 mph 21.9 mph 0.01 in Rain Light Rain
12:51 AM 60.8 °F - 57.2 °F 88% 30.06 in 4.0 mi WSW 17.3 mph 21.9 mph 0.01 in Rain Light Rain
12:53 AM 61.0 °F - 57.9 °F 90% 30.06 in 2.5 mi West 17.3 mph 21.9 mph 0.02 in Rain Heavy Rain
12:55 AM 60.8 °F - 57.2 °F 88% 30.08 in 1.8 mi West 19.6 mph 31.1 mph 0.00 in Rain Heavy Rain
1:01 AM 55.4 °F - 53.6 °F 94% 30.08 in 1.5 mi WNW 16.1 mph 31.1 mph 0.00 in Rain Heavy Rain
1:04 AM 55.4 °F - 53.6 °F 94% 30.08 in 2.0 mi WNW 15.0 mph 31.1 mph N/A Rain Heavy Rain
1:06 AM 55.4 °F - 53.6 °F 94% 30.08 in 2.5 mi WNW 15.0 mph 21.9 mph N/A Rain Rain
1:13 AM 53.6 °F - 53.6 °F 100% 30.07 in 7.0 mi NW 10.4 mph 20.7 mph N/A Rain Light Rain
1:40 AM 53.6 °F - 51.8 °F 94% 30.11 in 4.0 mi WNW 8.1 mph - N/A Rain Rain
1:53 AM 54.0 °F - 52.0 °F 93% 30.08 in 9.0 mi NW 5.8 mph - N/A Rain Light Rain
2:53 AM 53.1 °F - 52.0 °F 96% 30.13 in 4.0 mi WNW 6.9 mph - 0.05 in Rain Heavy Rain
3:03 AM 53.6 °F - 51.8 °F 94% 30.14 in 4.0 mi West 6.9 mph - 0.01 in Rain Rain
3:21 AM 53.6 °F - 51.8 °F 94% 30.13 in 10.0 mi Calm Calm - 0.02 in Rain Light Rain
3:44 AM 53.6 °F - 51.8 °F 94% 30.11 in 10.0 mi North 4.6 mph - 0.04 in Rain Light Rain
3:53 AM 52.0 °F - 51.1 °F 97% 30.12 in 4.0 mi NNW 9.2 mph - 0.05 in Rain Heavy Rain
4:17 AM 51.8 °F - 50.0 °F 94% 30.13 in 9.0 mi NNW 5.8 mph - N/A Rain Light Rain
4:53 AM 51.1 °F - 50.0 °F 96% 30.17 in 10.0 mi WNW 6.9 mph - N/A Rain Light Rain
5:47 AM 51.8 °F - 50.0 °F 94% 30.19 in 10.0 mi WNW 6.9 mph - 0.04 in   Overcast
5:53 AM 51.1 °F - 50.0 °F 96% 30.18 in 10.0 mi NW 6.9 mph - 0.04 in Rain Light Rain
6:07 AM 48.2 °F - 46.4 °F 93% 30.21 in 5.0 mi WNW 15.0 mph 28.8 mph 0.01 in Rain Light Rain
6:38 AM 46.4 °F 39.2 °F 44.6 °F 93% 30.23 in 5.0 mi NW 18.4 mph 26.5 mph 0.03 in   Overcast
6:53 AM 45.0 °F 37.9 °F 43.0 °F 93% 30.24 in 10.0 mi NW 16.1 mph - 0.04 in   Overcast
7:02 AM 44.6 °F 38.1 °F 42.8 °F 93% 30.25 in 10.0 mi NNW 13.8 mph - 0.01 in   Overcast
7:53 AM 43.0 °F 36.4 °F 41.0 °F 93% 30.30 in 9.0 mi NNW 12.7 mph 23.0 mph 0.04 in   Overcast
8:53 AM 41.0 °F 32.5 °F 37.9 °F 89% 30.34 in 10.0 mi NNW 17.3 mph - 0.03 in   Overcast
9:14 AM 42.8 °F 35.4 °F 37.4 °F 81% 30.35 in 10.0 mi NNW 15.0 mph - 0.01 in   Overcast
9:24 AM 42.8 °F 35.8 °F 35.6 °F 76% 30.36 in 10.0 mi NNW 13.8 mph 23.0 mph 0.01 in   Mostly Cloudy
9:53 AM 43.0 °F 35.7 °F 37.0 °F 80% 30.37 in 10.0 mi NW 15.0 mph - 0.02 in   Overcast
10:51 AM 44.6 °F 38.4 °F 35.6 °F 71% 30.39 in 10.0 mi NW 12.7 mph - 0.03 in   Scattered Clouds
10:53 AM 44.1 °F 37.4 °F 36.0 °F 73% 30.39 in 10.0 mi NW 13.8 mph - 0.03 in   Scattered Clouds
11:53 AM 45.0 °F 37.9 °F 30.9 °F 58% 30.40 in 10.0 mi NW 16.1 mph 24.2 mph 0.03 in   Clear
12:53 PM 46.9 °F - 28.0 °F 48% 30.39 in 10.0 mi NW 18.4 mph - 0.03 in   Clear
1:53 PM 46.9 °F - 28.9 °F 50% 30.38 in 10.0 mi NNW 9.2 mph - 0.02 in   Clear
2:53 PM 48.0 °F - 26.1 °F 42% 30.38 in 10.0 mi NNW 8.1 mph - 0.03 in   Clear
3:53 PM 46.9 °F - 26.1 °F 44% 30.40 in 10.0 mi NW 5.8 mph - 0.02 in   Clear
4:53 PM 44.1 °F 40.1 °F 28.0 °F 53% 30.42 in 10.0 mi NW 6.9 mph - 0.02 in   Clear
5:53 PM 41.0 °F 37.1 °F 28.0 °F 60% 30.43 in 10.0 mi NW 5.8 mph - 0.01 in   Clear
6:53 PM 37.0 °F - 30.0 °F 76% 30.44 in 10.0 mi Calm Calm - 0.02 in   Clear
7:53 PM 34.0 °F - 30.0 °F 85% 30.46 in 10.0 mi Calm Calm - 0.01 in   Clear
8:53 PM 32.0 °F - 30.0 °F 92% 30.47 in 10.0 mi Calm Calm - 0.01 in   Clear
9:53 PM 30.9 °F 27.5 °F 28.9 °F 92% 30.48 in 10.0 mi South 3.5 mph - 0.02 in   Clear
10:53 PM 30.0 °F - 28.0 °F 92% 30.48 in 10.0 mi Calm Calm - 0.01 in   Clear
11:53 PM 28.9 °F - 28.0 °F 96% 30.47 in 10.0 mi Calm Calm - 0.01 in   Clear